Regional Weather Roundup
Issued by NWS

Home | Current Version | Previous Version | Graphics & Text | Print | Product List | Glossary Off
Versions: 1 2 3 4 5 6 7 8 9 10 11 12 13 14 15 16 17 18 19 20 21 22 23 24 25 26 27 28 29 30 31 32 33 34 35 36 37 38 39 40 41 42 43 44 45 46 47 48 49 50

000
ASUS43 KFSD 031310
RWRSD

WEATHER ROUNDUP FOR SOUTH DAKOTA
NATIONAL WEATHER SERVICE SIOUX FALLS SD
800 AM CDT SUN MAY 03 2015

NOTE: "FAIR" INDICATES FEW OR NO CLOUDS BELOW 12,000 FEET WITH NO
SIGNIFICANT WEATHER AND/OR OBSTRUCTIONS TO VISIBILITY.


SDZ001>005-009-010-012>017-031400-
NORTHWEST AND NORTH CENTRAL SOUTH DAKOTA

CITY           SKY/WX    TMP DP  RH WIND       PRES   REMARKS
BUFFALO          N/A     50  36  58 NE12      29.90R
FAITH            N/A     52  35  52 N18       29.90R
MOBRIDGE       MOSUNNY   56  39  53 N20G28    29.84R
$$

SDZ012>016-024>037-041>051-057-063-072>074-031400-
SOUTHWEST AND SOUTH CENTRAL SOUTH DAKOTA

CITY           SKY/WX    TMP DP  RH WIND       PRES   REMARKS
RAPID CTY ARPT MOSUNNY   51  35  54 N22G30    29.92R
PIERRE         MOSUNNY   55  37  50 N21G29    29.78R
CUSTER         MOSUNNY   47  29  49 N14G23    29.95R
ELLSWORTH AFB  MOSUNNY   52  35  53 N15       29.93R
PHILIP         SUNNY     56  35  45 N24G32    29.83R
PINE RIDGE     MOSUNNY   48  36  63 VRB3      29.86R
SPEARFISH      FAIR      46  37  71 S5        29.99R
WINNER         FAIR      52  41  66 W7        29.74R
$$

SDZ004>011-016>023-039-040-031400-
NORTHEAST SOUTH DAKOTA

CITY           SKY/WX    TMP DP  RH WIND       PRES   REMARKS
ABERDEEN       SUNNY     55  41  59 N16       29.79R
WATERTOWN      SUNNY     56  52  86 N6        29.75R FOG
BROOKINGS      MOSUNNY   61  54  77 CALM      29.73R
SISSETON         N/A     57  46  66 N17       29.75R
$$

SDZ017-020-022-023-036>040-048>070-031400-
SOUTHEAST SOUTH DAKOTA

CITY           SKY/WX    TMP DP  RH WIND       PRES   REMARKS
SIOUX FALLS    PTSUNNY   60  55  83 N5        29.74R
HURON          MOSUNNY   54  45  71 NW9       29.72R
CHAMBERLAIN    MOSUNNY   56  47  71 N10       29.72R
MITCHELL       MOSUNNY   63  54  72 S5        29.70R
YANKTON        MOSUNNY   64  52  63 S9G17     29.71R
$$

ABBREVIATIONS USED IN REMARKS
   TC - TEMPERATURE IN CELSIUS
  WCI - WIND CHILL INDEX
   HX - HEAT INDEX
  VSB - VISIBILITY




USA.gov is the U.S. government's official web portal to all federal, state and local government web resources and services.